Location: Allos
(44.2333°N, 6.6333°E)
Time: 04:32:12
(UTC+00:00)

CZ-4 R/B - Pass Details

Date: 01 December 2020
Orbit: 532 x 598 km, 97.7° (Epoch: 24 January)

Event Time Altitude Azimuth Distance (km) Brightness Sun altitude
Rises 17:34:15 0° 148° (SSE) 2,713 4.7 -17.1°
Enters shadow 17:35:02 - 146° (SE) 2,389 4.4 -17.2°
Exits shadow 17:41:01 35° 39° (NE) 932 2.0 -18.3°
Drops below altitude 10° 17:43:58 10° 2° (N) 1,886 3.9 -18.8°
Sets 17:46:13 0° 355° (N) 2,800 4.9 -19.2°
